Hourly Data Report for October 16, 2013

All times are specified in Local Standard Time (LST). Add 1 hour to adjust for Daylight Saving Time where and when it is observed.

RANKIN INLET A
NUNAVUT

62°48'38.000" N
92°06'53.000" W
32.30 m
2303405
71083
YRT

Download Data

Hourly Data (October 2013)
Hourly Data Report for October 16, 2013
Temp Definition
°C
Dew Point Temp Definition
°C
Rel Hum Definition
%
Wind Dir Definition
10's deg

Wind Spd Definition
km/h
Visibility Definition
km
Stn Press Definition
kPa
Hmdx Definition


Wind Chill Definition


Weather Definition


TIME
00:00 Legend Double Dagger -0.9 -2.2 91 18 11 24.1 99.84   -5 Cloudy
01:00 Legend Double Dagger -0.7 -2.0 91 12 3 24.1 99.80   -2 LegendNANA
02:00 Legend Double Dagger -1.1 -2.1 93 5 11 24.1 99.77   -5 Snow
03:00 Legend Double Dagger -1.4 -2.1 95 5 17 24.1 99.76   -7 Snow
04:00 Legend Double Dagger -1.6 -2.4 94 5 19 24.1 99.74   -7 Snow
05:00 Legend Double Dagger -1.3 -2.1 94 5 19 24.1 99.72   -7 Snow
06:00 Legend Double Dagger -1.6 -2.3 95 5 21 16.1 99.71   -7 Snow
07:00 Legend Double Dagger -2.0 -2.8 94 5 25 1.6 99.68   -8 Snow
08:00 Legend Double Dagger -2.2 -3.0 94 5 22 1.2 99.66   -8 Snow
09:00 Legend Double Dagger -2.3 -3.3 93 4 25 1.6 99.63   -9 Snow
10:00 Legend Double Dagger -1.9 -2.9 93 4 28 1.6 99.62   -9 Snow
11:00 Legend Double Dagger -1.9 -2.7 94 2 27 1.6 99.60   -9 Snow
12:00 Legend Double Dagger -2.2 -3.2 93 2 35 1.6 99.57   -10 Snow
13:00 Legend Double Dagger -2.4 -3.5 92 1 34 1.6 99.58   -10 Snow
14:00 Legend Double Dagger -3.1 -4.2 92 1 42 1.2 99.57   -12 Snow
15:00 Legend Double Dagger -3.3 -4.6 91 1 37 1.6 99.57   -12 Snow
16:00 Legend Double Dagger -3.5 -4.9 90 36 39 3.2 99.56   -12 Snow
17:00 Legend Double Dagger -3.8 -5.1 91 36 40 16.1 99.56   -12 Snow
18:00 Legend Double Dagger -3.9 -5.2 91 36 39 16.1 99.59   -13 Snow
19:00 Legend Double Dagger -3.7 -5.0 91 36 44 16.1 99.59   -13 Snow
20:00 Legend Double Dagger -3.3 -4.4 92 36 43 12.9 99.56   -12 Snow
21:00 Legend Double Dagger -3.5 -4.6 92 36 39 24.1 99.52   -12 Snow
22:00 Legend Double Dagger -3.4 -4.5 92 36 39 24.1 99.51   -12 Snow
23:00 Legend Double Dagger -3.0 -4.1 92 35 37 24.1 99.48   -11 Snow

Notes on Data Quality.

Legend

  • E = Estimated
  • M = Missing
  • NA = Not Available
  • ‡ = Partner data that is not subject to review by the National Climate Archives
Date modified: